Regional Weather Roundup
Issued by NWS

Home | Current Version | Previous Version | Text Only | Print | Product List | Glossary On
Versions: 1 2 3 4 5 6 7 8 9 10 11 12 13 14 15 16 17 18 19 20 21 22 23 24 25 26 27 28 29 30 31 32 33 34 35 36 37 38 39 40 41 42 43 44 45 46 47 48
000
ASUS45 KBOU 231007
RWRCO

WEATHER ROUNDUP FOR COLORADO
NATIONAL WEATHER SERVICE DENVER/BOULDER CO
400 AM MDT WED JUL 23 2014

NOTE: "FAIR" INDICATES FEW OR NO CLOUDS BELOW 12000 FEET WITH NO
SIGNIFICANT WEATHER AND/OR OBSTRUCTIONS TO VISIBILITY.

COZ001>005-013-030-031-231100-
...NORTHWEST COLORADO...

CITY           SKY/WX    TMP DP  RH WIND       PRES   REMARKS
CRAIG          CLEAR     47  37  68 CALM      30.34R
HAYDEN         CLEAR     59  34  38 SE13      30.37R
MEEKER         CLEAR     54  31  41 VRB3      30.36R
MOUNT WERNER   NOT AVBL
STEAMBOAT SPGS CLEAR     53  37  54 CALM      30.40F
WALDEN         CLEAR     45  37  76 SE3       30.52S
$$

COZ006>008-011-231100-
...WEST CENTRAL VALLEYS...

CITY           SKY/WX    TMP DP  RH WIND       PRES   REMARKS
GRAND JUNCTION CLEAR     76  28  17 E13       30.21R
MONTROSE       PTCLDY    67  42  40 E10       30.34R
EAGLE          CLEAR     59  37  44 CALM      30.44S
RIFLE          CLEAR     63  30  28 S6        30.30R
DELTA          PTCLDY    68  34  28 NE7       30.29S
NUCLA          PTCLDY    70  34  26 CALM      30.38S
$$

COZ017>023-064>068-231100-
...SOUTHWEST COLORADO...

CITY           SKY/WX    TMP DP  RH WIND       PRES   REMARKS
DURANGO        CLOUDY    63  54  72 CALM      30.45S
CORTEZ         CLEAR     73  45  36 S5        30.35F
PAGOSA SPRINGS CLOUDY    63  42  47 NE3       30.56S
TELLURIDE      MOCLDY    63  39  42 CALM      30.63F
WOLF CREEK PAS NOT AVBL
$$

COZ009-010-012-014-032>034-037-058>063-231100-
...CENTRAL COLORADO...

CITY           SKY/WX    TMP DP  RH WIND       PRES   REMARKS
ASPEN          CLEAR     69  40  34 SE13G18   30.49S
BUENA VISTA    PTCLDY    51  43  74 W3        30.58S
COPPER MTN     CLEAR     59  36  41 S28G33    30.86S
BERTHOUD PASS  FAIR      46  34  61 SW12      30.92S
COTTONWOOD PAS PTCLDY    61  37  41 CALM      30.71S
GUNNISON       PTCLDY    55  39  54 N12       30.56F
KREMMLING      CLEAR     52  37  58 NE3       30.51R
LEADVILLE      CLEAR     45  38  76 NE7       30.71F
MONARCH PASS   MOCLDY    54  37  54 S21       30.97S
SALIDA         PTCLDY   N/A N/A N/A SW5       30.62S
SUNLIGHT       CLEAR     59  36  41 SE3       30.75S
WILKERSON PASS MOCLDY    52  36  54 SW9       30.84F
$$

COZ069>075-231100-
...SAN LUIS VALLEY/SANGRE DE CRISTO MOUNTAINS...

CITY           SKY/WX    TMP DP  RH WIND       PRES   REMARKS
ALAMOSA        PTCLDY    54  44  69 E6        30.52F
LA VETA PASS   CLEAR     59  41  51 NW7       30.74S
SAGUACHE       MOCLDY    59  43  55 N7        30.57R
$$

COZ035-036-038>040-231100-
...NORTHERN COLORADO FRONT RANGE...

CITY           SKY/WX    TMP DP  RH WIND       PRES   REMARKS
DENVER INTL AP PTCLDY    68  45  43 SW9       30.31F
DMNS CITY PARK   N/A     67  50  55 W2        30.32S
AURORA         PTCLDY    68  44  42 S13       30.34F
FRONT RANGE AP NOT AVBL
ERIE MUNI ARPT CLEAR     65  60  82 W5        30.30F
BOULDER MUN AP CLEAR     70  50  49 CALM      30.31F
CENTENNIAL     PTCLDY    66  42  41 S10       30.36S
BROOMFIELD     CLEAR     70  55  60 NW7       30.34S
FORT COLLINS   CLEAR     66  61  82 N8        30.32S
LONGMONT       CLEAR     70  61  73 N5        30.32S
$$

COZ041-046-047-076>085-087-088-231100-
...PIKES PEAK/PALMER DIVIDE AND SOUTHERN FOOTHILLS...

CITY           SKY/WX    TMP DP  RH WIND       PRES   REMARKS
COLO. SPRINGS  PTCLDY    65  51  60 N7        30.40F
A. F. ACADEMY  PTCLDY    60  45  58 N7        30.43F
ELLICOTT       PTCLDY    64  54  69 E5        30.38F
FALCON         PTCLDY    61  50  67 CALM      30.46F
FORT CARSON    MOCLDY    67  49  51 NW10      30.36F
LIMON          CLEAR     62  57  83 CALM      30.34F
MONUMENT HILL  CLEAR     59  45  58 SW7       30.45F
TRINIDAD       CLEAR     66  48  52 W10       30.38R
$$

COZ042>045-048>051-090-091-231100-
...NORTHEAST COLORADO...

CITY           SKY/WX    TMP DP  RH WIND       PRES   REMARKS
GREELEY ARPT   CLEAR     66  57  72 N9        30.30R
AKRON          CLOUDY    66  63  90 SE16      30.29F
BURLINGTON     FOG       65  64  97 E5        30.27S VSB 1/4
WRAY             N/A     71  67  86 E14G22    30.29S
STERLING       MOCLDY    72  68  88 E7        30.28S
HOLYOKE        CLOUDY    72  66  83 E15       30.30R
FORT MORGAN    PTCLDY    65  62  88 E14       30.30S
$$

COZ086-089-092>099-231100-
...SOUTHEAST COLORADO...

CITY           SKY/WX    TMP DP  RH WIND       PRES   REMARKS
PUEBLO         MOCLDY    71  50  47 CALM      30.28S
LA JUNTA       CLEAR     67  60  78 W3        30.25F
LAMAR          CLEAR     67  61  81 SE3       30.20F
SPRINGFIELD      N/A     66  62  87 SW6       30.27F
$$


USA.gov is the U.S. government's official web portal to all federal, state and local government web resources and services.